STARLINK-37227

Last updated on Sun Apr 12 2026 00:02:10 GMT+0000 (Coordinated Universal Time)

1 68558U 26070S 26101.50002315 -.01156777 42004-3 -25733-2 0 9994 2 68558 53.1581 220.2062 0000952 58.4551 142.9333 15.97237468 2655
UTC large
Height (km)
Speed (km/s)
/
Latitude / Longitude
Inclination (degrees)
Orbital Period (minutes)
Azimuth
Elevation
Range (km)
Doppler Factor

Next 0 passes for location: London (51.5072 / 0.1276)

Sorry there are no passes over London.
STARLINK-37227